Date,TemperatureHighF,TemperatureAvgF,TemperatureLowF,DewpointHighF,DewpointAvgF,DewpointLowF,HumidityHigh,HumidityAvg,HumidityLow,PressureMaxIn,PressureMinIn,WindSpeedMaxMPH,WindSpeedAvgMPH,GustSpeedMaxMPH,PrecipitationSumIn
2013-1-1,61,55,46,59,52,45,97,92,84,30.21,29.96,8,1,10,0.00
2013-1-2,60,57,54,60,55,50,98,92,87,30.12,29.91,9,3,12,0.02
2013-1-3,53,51,49,52,50,48,98,95,89,30.26,30.08,12,2,14,0.21
2013-1-4,55,46,40,47,41,36,97,84,51,30.34,30.24,11,3,16,0.00
2013-1-5,54,46,38,43,39,32,98,78,44,30.40,30.29,12,2,12,0.00
2013-1-6,54,50,47,48,46,41,94,87,69,30.30,30.12,6,1,9,0.08
2013-1-7,55,49,42,46,40,36,88,73,52,30.37,30.18,24,7,24,0.00
2013-1-8,68,54,46,58,49,41,91,84,68,30.37,30.28,14,6,16,0.00
2013-1-9,61,58,56,58,55,53,93,88,83,30.36,30.30,7,3,9,0.00
2013-1-12,60,60,60,60,60,59,99,98,98,30.14,30.13,1,0,2,0.01
2013-1-13,69,61,56,66,60,56,99,97,84,30.19,30.10,6,0,7,0.02
2013-1-14,73,64,60,67,62,60,99,94,80,30.21,30.12,9,2,10,0.01
2013-1-15,66,62,60,63,61,59,99,97,92,30.17,30.04,5,1,8,0.01
2013-1-16,71,65,61,65,63,61,99,93,80,30.08,29.97,12,2,13,0.01
2013-1-17,70,60,46,64,56,40,97,87,74,30.06,29.76,24,7,31,0.07
2013-1-18,54,47,41,43,36,26,90,68,34,30.49,30.07,23,8,27,0.00
2013-1-19,59,49,41,50,41,34,97,75,58,30.46,30.23,16,5,17,0.00
2013-1-20,67,54,45,52,46,38,99,79,36,30.23,30.05,12,2,17,0.00
2013-1-21,63,52,41,47,42,37,98,72,42,30.11,29.99,12,3,14,0.01
2013-1-22,56,48,40,37,29,25,72,47,33,30.29,30.07,14,5,18,0.00
2013-1-23,54,45,36,44,31,22,80,59,39,30.38,30.20,10,3,17,0.00
2013-1-24,67,53,38,49,40,26,79,62,30,30.44,30.12,21,10,28,0.00
2013-1-25,57,44,32,49,36,22,81,73,64,30.43,30.15,14,6,19,0.00
2013-1-26,61,50,42,49,44,39,94,80,47,30.31,30.12,11,3,15,0.00
2013-1-27,54,46,41,45,40,35,92,80,59,30.49,30.31,17,8,20,0.00
2013-1-28,64,51,43,55,47,40,96,86,68,30.44,30.28,9,3,11,0.00
2013-1-29,72,60,49,67,58,48,99,94,82,30.28,30.12,11,2,16,0.00
2013-1-30,70,67,58,66,64,54,96,91,86,30.12,29.66,33,11,37,0.06
2013-1-31,56,51,47,53,36,26,93,58,32,30.20,29.77,28,10,35,0.07
2013-2-1,57,49,37,36,29,16,79,49,22,30.36,30.18,29,7,29,0.00
2013-2-2,56,44,32,45,35,23,95,71,54,30.37,30.11,9,3,11,0.00
2013-2-3,61,52,44,44,37,33,83,59,37,30.11,29.95,19,6,23,0.00
2013-2-4,54,45,35,42,38,32,94,77,48,30.15,30.05,7,1,11,0.00
2013-2-5,65,52,40,53,47,38,98,85,60,30.09,29.97,12,2,16,0.00
2013-2-6,69,57,49,57,52,47,97,85,58,30.17,30.03,10,1,11,0.00
2013-2-7,62,56,49,61,55,48,99,96,91,30.16,29.71,19,6,20,1.67
2013-2-8,64,55,49,60,50,47,98,85,67,30.07,29.73,16,6,20,0.00
2013-2-9,61,50,42,50,40,27,96,72,28,30.34,30.06,13,4,17,0.00
2013-2-10,65,54,40,57,50,39,98,84,70,30.38,30.19,18,5,19,0.01
2013-2-11,64,62,59,62,60,58,98,94,86,30.22,30.06,9,2,13,2.01
2013-2-12,60,56,52,59,55,51,99,95,77,30.12,29.87,12,4,19,1.71
2013-2-13,73,61,53,67,56,47,99,86,46,29.90,29.71,35,5,35,0.86
2013-2-14,53,49,45,49,45,43,96,87,77,30.09,29.86,15,2,18,0.00
2013-2-15,46,44,44,45,44,42,98,96,93,30.07,30.04,5,2,9,0.00
2013-2-21,60,50,39,52,44,38,98,82,51,30.18,30.09,11,3,12,0.00
2013-2-22,64,57,50,63,54,47,98,90,74,30.17,30.03,22,8,28,0.37
2013-2-23,61,53,47,61,53,47,100,99,97,30.04,29.81,12,3,17,2.44
2013-2-24,67,56,49,58,52,47,99,88,49,30.00,29.77,12,4,14,0.00
2013-2-25,54,49,43,53,48,42,99,96,87,30.06,29.92,19,7,29,0.66
2013-2-26,68,62,46,67,59,45,99,92,71,29.94,29.59,23,8,29,0.77
2013-2-27,60,54,49,54,44,38,89,72,61,29.92,29.72,15,6,20,0.00
2013-2-28,60,53,48,45,38,31,84,59,36,29.91,29.80,22,8,25,0.00
2013-3-1,51,46,40,40,34,31,73,64,52,29.97,29.88,13,5,18,0.00
2013-3-2,49,44,38,37,34,32,81,69,53,29.95,29.86,18,7,22,0.00
2013-3-3,45,40,34,32,30,27,84,66,52,30.05,29.92,16,6,18,0.00
2013-3-4,55,42,31,44,30,23,87,63,32,30.20,30.04,13,4,15,0.00
2013-3-5,60,54,43,57,49,42,98,83,55,30.14,29.75,17,3,24,0.05
2013-3-6,58,47,42,55,33,24,91,59,43,30.09,29.75,29,12,33,0.00
2013-3-7,56,45,36,43,36,31,95,72,45,30.24,30.09,14,4,16,0.00
2013-3-8,43,41,39,40,35,32,97,80,67,30.28,30.19,12,6,17,0.00
2013-3-9,56,51,43,45,41,34,96,71,47,30.33,30.25,17,3,17,0.00
2013-3-10,63,53,42,50,44,39,98,73,44,30.28,30.20,20,5,20,0.00
2013-3-11,68,60,50,61,55,44,96,83,64,30.21,29.90,20,6,20,0.00
2013-3-12,68,62,59,64,57,45,98,84,52,29.97,29.82,17,4,17,0.07
2013-3-13,64,56,46,46,36,27,76,49,26,30.14,29.97,24,7,24,0.00
2013-3-14,56,47,38,42,29,24,85,51,30,30.32,30.11,19,5,19,0.00
2013-3-15,64,55,43,52,42,30,90,64,35,30.24,30.07,15,3,15,0.00
2013-3-16,74,61,52,56,51,45,92,71,41,30.07,29.90,19,4,19,0.00
2013-3-17,72,62,55,60,56,52,92,80,62,30.06,29.97,17,3,17,0.00
2013-3-18,65,61,57,63,58,55,97,90,80,30.08,29.86,31,5,31,0.30
2013-3-19,75,66,57,60,50,32,98,62,28,30.01,29.86,22,6,22,0.04
2013-3-20,62,55,44,45,34,19,92,49,22,30.09,29.84,21,6,21,0.00
2013-3-21,57,50,43,45,27,18,97,45,23,29.95,29.81,26,8,26,0.00
2013-3-22,51,46,40,46,32,22,88,59,41,30.10,29.95,17,4,17,0.00
2013-3-23,58,52,45,53,48,43,97,90,70,30.06,29.85,24,5,24,0.34
2013-3-24,68,56,49,67,55,48,100,95,89,29.87,29.47,32,8,32,2.20
2013-3-25,56,50,44,50,36,24,96,61,32,29.98,29.59,34,11,34,0.00
2013-3-26,50,44,37,32,28,24,69,55,42,30.20,29.98,28,10,29,0.00
2013-3-27,58,46,35,45,33,28,94,62,35,30.28,30.18,19,5,19,0.00
2013-3-28,61,49,39,46,35,27,97,62,29,30.31,30.19,20,5,20,0.00
2013-3-29,59,51,41,50,42,34,98,74,41,30.35,30.23,14,3,14,0.00
2013-3-30,68,59,52,56,51,45,95,77,44,30.25,30.09,17,2,18,0.00
2013-3-31,68,62,56,59,56,52,91,83,69,30.10,29.91,20,3,20,0.05
2013-4-1,65,61,59,62,58,57,97,92,87,29.96,29.89,10,1,10,0.03
2013-4-2,62,58,53,58,50,45,96,77,58,30.14,29.95,20,5,22,0.00
2013-4-3,56,54,53,54,54,52,98,97,88,30.15,30.06,11,0,11,0.00
2013-4-4,61,57,50,60,56,49,98,96,85,30.09,29.84,32,9,32,0.84
2013-4-5,59,50,44,51,47,43,98,90,73,30.03,29.85,18,5,20,0.26
2013-4-6,67,57,47,54,48,33,98,77,30,30.23,30.03,26,7,26,0.01
2013-4-7,68,62,54,62,58,52,95,87,77,30.25,30.15,19,6,19,0.00
2013-4-8,74,65,54,65,60,54,99,86,69,30.20,30.12,13,3,14,0.00
2013-4-9,77,68,60,68,64,59,99,88,71,30.23,30.12,15,2,15,0.00
2013-4-10,75,72,65,68,65,62,97,80,66,30.18,30.02,16,4,16,0.00
2013-4-11,75,71,66,71,68,65,96,92,86,30.03,29.84,24,7,24,0.00
2013-4-12,74,70,68,71,68,67,99,95,88,29.86,29.73,21,4,21,0.71
2013-4-13,72,64,57,67,53,47,95,68,44,30.03,29.84,14,4,14,0.00
2013-4-14,70,64,57,64,61,56,99,89,76,30.10,29.93,21,4,21,0.27
2013-4-15,72,67,62,66,64,61,98,91,73,30.16,29.87,18,5,18,0.36
2013-4-16,75,68,62,67,64,61,98,87,68,30.25,30.15,18,5,18,0.00
2013-4-17,75,69,62,68,64,62,99,87,66,30.23,30.14,17,4,17,0.01
2013-4-18,76,71,66,70,67,65,98,88,74,30.15,30.03,21,5,21,0.04
2013-4-19,76,72,68,72,69,65,98,92,84,30.03,29.85,27,7,27,0.80
2013-4-20,67,56,50,66,51,47,97,85,62,30.24,29.94,26,5,26,0.53
2013-4-21,67,58,48,56,51,46,96,78,59,30.32,30.22,32,10,32,0.01
2013-4-22,68,58,51,54,48,41,81,71,54,30.27,30.11,25,10,26,0.00
2013-4-23,65,58,53,57,53,49,96,84,73,30.22,30.14,18,5,18,0.00
2013-4-24,73,64,52,64,59,51,99,86,67,30.19,30.07,14,3,14,0.00
2013-4-25,66,66,65,64,64,64,95,94,93,30.12,30.09,5,0,5,0.00
2013-4-28,73,71,69,66,65,64,87,83,76,30.09,30.03,18,7,18,0.00
2013-4-29,76,70,65,70,66,63,99,90,74,30.06,29.95,15,2,15,0.81
2013-4-30,74,67,64,67,65,62,99,92,75,30.09,29.96,18,3,18,0.14
2013-5-1,71,66,61,64,61,58,96,87,71,30.17,30.06,19,8,19,0.01
2013-5-2,72,68,64,66,64,60,94,88,79,30.15,30.08,30,13,30,0.00
2013-5-3,70,64,60,64,61,55,94,87,79,30.10,29.99,28,14,28,0.07
2013-5-4,66,63,60,63,60,56,95,90,81,29.99,29.87,32,14,32,0.10
2013-5-5,71,67,62,68,64,61,98,92,82,29.88,29.77,31,9,31,0.30
2013-5-6,70,64,59,62,56,50,99,76,50,29.94,29.83,17,4,17,0.00
2013-5-7,68,62,55,61,57,53,97,83,66,29.98,29.90,14,2,14,0.20
2013-5-8,74,65,54,65,59,53,98,81,56,30.06,29.97,23,3,23,0.00
2013-5-9,81,71,64,67,64,61,94,79,60,30.10,30.03,16,4,16,0.00
2013-5-10,80,76,72,70,67,64,88,74,63,30.10,30.01,16,6,16,0.00
2013-5-11,79,74,70,71,69,63,96,84,64,30.03,29.89,15,3,15,0.00
2013-5-12,77,72,70,70,67,64,91,84,65,29.93,29.87,18,6,18,0.00
2013-5-17,72,71,71,68,68,67,89,87,87,30.12,30.11,8,3,8,0.00
2013-5-18,79,74,69,72,70,67,97,87,72,30.16,30.07,17,4,17,0.00
2013-5-19,79,75,71,73,71,70,96,88,77,30.13,30.05,15,4,15,0.00
2013-5-20,77,74,74,73,72,71,95,93,88,30.11,30.05,11,4,11,0.00
2013-5-21,78,74,72,72,71,70,92,88,80,30.02,29.99,12,4,12,0.07
2013-5-22,80,75,68,73,70,66,99,85,66,30.03,29.93,14,3,14,0.00
2013-5-23,84,77,71,74,72,69,97,84,65,29.96,29.86,16,3,16,0.00
2013-5-24,83,76,68,71,60,44,88,59,35,30.16,29.88,23,6,23,0.00
2013-5-25,74,66,57,58,51,42,85,59,37,30.31,30.16,18,4,18,0.00
2013-5-26,79,71,60,65,61,57,97,73,50,30.27,30.16,18,3,18,0.00
2013-5-27,78,72,63,69,65,62,97,80,63,30.25,30.17,16,3,16,0.00
2013-5-28,79,74,66,71,67,63,97,79,62,30.26,30.17,18,4,18,0.00
2013-5-29,78,75,71,70,68,65,90,78,68,30.26,30.16,16,6,16,0.00
2013-5-30,80,78,76,73,72,71,91,82,75,30.25,30.17,17,8,17,0.00
2013-5-31,80,77,72,74,73,71,97,87,75,30.23,30.14,18,5,18,0.00
2013-6-1,80,77,72,73,72,70,95,83,73,30.15,30.07,17,5,17,0.00
2013-6-2,81,78,75,75,74,71,91,86,77,30.10,29.94,19,6,19,0.00
2013-6-3,84,79,77,80,76,72,96,90,80,29.96,29.87,17,5,17,0.57
2013-6-4,86,79,76,78,76,74,97,90,70,30.02,29.90,18,4,18,0.00
2013-6-5,80,77,74,76,75,73,98,93,85,30.02,29.93,21,6,21,0.58
2013-6-6,79,76,72,76,73,71,99,92,82,29.97,29.67,22,6,25,1.27
2013-6-7,87,79,74,77,74,71,98,86,64,29.88,29.48,30,10,30,0.10
2013-6-8,84,81,77,77,76,73,93,84,70,30.10,29.88,16,4,16,0.00
2013-6-9,82,79,76,77,76,74,97,88,78,30.14,30.07,19,5,19,0.00
2013-6-10,84,79,70,78,76,68,98,89,77,30.11,29.96,33,5,33,0.72
2013-6-11,88,80,73,79,76,72,98,86,67,30.05,29.93,16,4,16,0.00
2013-6-12,94,85,78,81,76,72,94,76,50,30.00,29.92,13,3,13,0.00
2013-6-13,95,87,82,80,78,72,95,78,49,29.94,29.74,21,3,21,0.00
2013-6-14,86,81,77,77,75,69,88,81,74,29.83,29.73,16,4,16,0.00
2013-6-16,82,80,77,70,67,64,79,66,55,30.13,30.07,15,5,15,0.00
2013-6-17,82,78,76,77,74,68,95,87,77,30.09,29.97,13,4,13,0.12
2013-6-18,88,81,72,78,76,70,97,84,65,30.01,29.89,23,5,23,0.58
2013-6-19,74,71,70,71,70,69,98,97,90,30.05,29.95,17,2,19,0.94
2013-6-20,80,76,71,73,72,70,99,88,76,30.15,30.02,21,6,21,0.01
2013-6-21,82,76,71,75,71,68,95,86,71,30.17,30.09,18,6,18,0.00
2013-6-22,82,77,72,75,73,72,98,89,77,30.17,30.09,14,3,14,0.00
2013-6-23,84,79,74,78,75,72,98,88,75,30.19,30.11,16,3,16,0.00
2013-6-24,86,81,78,78,76,72,91,84,73,30.23,30.13,13,3,14,0.00
2013-6-25,86,82,77,78,76,70,92,83,71,30.17,30.06,14,3,14,0.00
2013-6-26,87,81,74,79,76,73,95,84,69,30.09,29.97,19,4,22,0.03
2013-6-27,88,83,79,81,77,70,91,83,69,30.00,29.81,19,4,20,0.00
2013-6-28,88,83,78,81,76,72,90,81,68,29.84,29.68,18,6,18,0.00
2013-6-29,87,80,74,78,74,71,97,83,67,29.79,29.70,20,5,20,0.45
2013-6-30,85,81,78,78,76,72,95,86,75,29.85,29.74,23,6,23,0.11
2013-7-1,85,80,74,78,75,72,95,87,77,30.01,29.82,22,6,22,0.72
2013-7-2,80,78,74,78,75,73,97,89,82,30.15,30.00,23,5,23,1.78
2013-7-3,84,80,75,78,76,73,96,90,79,30.21,30.12,24,5,24,0.69
2013-7-4,85,82,76,79,77,74,94,86,79,30.22,30.16,23,8,23,0.15
2013-7-5,84,82,79,79,77,75,92,85,78,30.23,30.16,24,7,24,0.14
2013-7-6,84,81,78,79,76,74,92,85,77,30.21,30.13,24,7,26,0.34
2013-7-7,85,81,79,76,75,73,88,81,70,30.19,30.11,16,5,16,0.00
2013-7-8,86,80,74,78,75,73,97,84,72,30.20,30.13,13,2,13,0.00
2013-7-9,86,81,75,78,75,73,97,83,70,30.20,30.10,15,3,15,0.00
2013-7-10,86,82,76,77,75,73,92,81,69,30.14,29.98,14,2,14,0.00
2013-7-11,86,82,79,78,76,73,86,81,74,30.02,29.89,21,5,21,0.00
2013-7-12,82,78,75,77,74,72,92,88,81,29.93,29.89,11,3,14,0.00
2013-7-14,84,80,74,78,75,72,97,87,76,30.20,30.07,29,9,29,0.31
2013-7-15,84,81,76,79,77,75,97,88,80,30.24,30.17,21,8,24,0.19
2013-7-16,85,81,77,78,76,73,97,86,70,30.26,30.21,16,5,16,0.08
2013-7-17,87,80,76,78,75,72,92,84,75,30.15,30.11,14,2,14,0.00
2013-7-18,86,80,72,78,74,72,98,84,68,30.16,30.08,13,3,13,0.00
2013-7-20,86,81,75,78,75,72,93,83,70,30.10,30.00,22,5,22,0.13
2013-7-21,85,79,76,78,75,72,95,86,74,30.07,29.96,19,5,19,0.09
2013-7-22,89,80,76,77,75,73,94,85,63,30.03,29.93,23,6,23,0.01
2013-7-23,90,82,76,78,75,73,91,80,61,29.95,29.81,20,7,20,0.00
2013-7-24,84,80,75,78,75,72,93,85,75,29.85,29.76,19,4,19,0.00
2013-7-25,88,79,74,80,75,71,95,87,73,29.98,29.78,16,2,16,0.38
2013-7-26,84,80,75,78,76,73,97,87,74,30.06,29.96,16,6,16,0.00
2013-7-27,86,82,76,78,77,71,94,85,74,30.04,29.91,16,5,16,0.00
2013-7-28,86,81,77,78,76,74,95,85,71,30.02,29.92,9,2,11,0.05
2013-7-29,88,82,78,80,77,75,94,85,72,30.16,30.00,17,2,17,0.00
2013-7-30,87,81,76,79,77,73,97,86,75,30.17,30.10,15,2,15,0.00
2013-7-31,87,80,75,79,77,73,97,89,74,30.13,30.02,15,2,15,0.54
2013-8-1,84,79,75,77,75,73,95,87,72,30.02,29.91,15,3,15,0.00
2013-8-2,80,78,77,77,75,74,92,89,84,30.00,29.93,10,3,10,0.00
2013-8-3,88,86,82,80,78,76,93,79,69,30.03,29.94,11,3,11,0.00
2013-8-4,91,83,75,80,77,73,98,82,64,30.00,29.89,22,3,22,0.86
2013-8-5,77,76,76,76,75,75,98,97,95,30.00,29.95,7,2,7,0.00
2013-8-8,86,83,82,78,78,76,89,83,72,30.07,30.01,10,4,13,0.18
2013-8-9,88,83,80,78,77,74,90,81,68,30.12,30.01,14,4,14,0.00
2013-8-12,93,88,83,82,79,75,88,75,61,30.09,29.97,16,4,16,0.01
2013-8-13,92,86,81,82,79,76,91,82,62,30.00,29.85,18,4,18,0.00
2013-8-14,89,81,74,80,76,73,99,87,70,30.02,29.87,15,4,15,4.92
2013-8-15,75,72,70,74,71,68,99,96,92,30.07,29.96,16,5,17,0.53
2013-8-16,82,76,70,77,74,69,99,93,84,30.07,29.98,15,6,15,0.40
2013-8-17,81,74,72,76,73,71,99,95,81,30.15,30.02,12,3,12,0.04
2013-8-18,85,79,73,79,75,72,98,88,71,30.18,30.10,14,3,14,0.20
2013-8-19,87,80,76,79,76,74,99,90,71,30.14,30.03,15,2,15,0.11
2013-8-20,85,79,75,79,77,75,98,94,78,30.16,30.05,11,1,11,0.21
2013-8-21,86,82,76,79,77,75,99,87,72,30.21,30.11,15,2,15,0.01
2013-8-22,88,81,74,78,76,72,97,85,63,30.16,30.03,13,2,13,0.19
2013-8-23,89,82,74,78,76,73,97,82,63,30.06,29.97,23,2,23,0.00
2013-8-24,83,78,76,78,74,71,94,86,74,30.18,30.02,18,4,18,0.00
2013-8-27,76,75,74,72,71,70,92,89,85,30.05,30.04,1,0,1,0.00
2013-8-28,88,80,74,75,72,69,91,78,58,30.05,29.96,12,2,12,0.00
2013-8-29,91,83,76,80,76,72,91,81,60,29.98,29.87,13,3,13,0.00
2013-8-30,80,78,78,76,76,75,94,91,86,29.92,29.90,9,3,9,0.00
2013-9-3,91,84,76,81,76,69,92,78,62,29.96,29.85,17,4,17,0.00
2013-9-4,89,82,75,79,76,73,97,85,67,30.08,29.95,12,2,12,0.00
2013-9-5,90,83,75,80,77,74,97,83,67,30.09,30.00,12,1,12,0.00
2013-9-8,86,82,78,74,73,70,86,73,63,30.00,29.91,12,2,12,0.00
2013-9-9,85,80,73,76,73,71,97,81,67,30.12,29.98,17,3,17,0.00
2013-9-10,84,79,73,76,74,71,95,83,66,30.21,30.11,21,5,21,0.00
2013-9-11,84,79,74,76,74,67,97,85,57,30.18,30.08,18,4,18,0.00
2013-9-12,86,81,74,75,72,68,94,76,57,30.09,29.89,11,2,11,0.00
2013-9-13,90,81,77,78,75,72,94,81,62,29.90,29.73,15,3,15,0.00
2013-9-14,84,77,70,76,71,63,96,83,71,30.05,29.79,19,6,19,0.00
2013-9-15,84,79,73,76,74,71,96,86,74,30.13,30.04,20,7,20,0.00
2013-9-16,88,80,74,78,76,72,97,88,65,30.12,30.01,15,2,15,0.24
2013-9-17,80,75,72,75,70,65,98,84,65,30.19,30.06,23,8,23,0.00
2013-9-18,72,69,67,66,65,64,90,88,82,30.18,30.13,17,7,17,0.00
2013-9-22,77,73,71,71,69,68,94,88,78,29.86,29.76,10,1,10,0.08
2013-9-23,77,72,66,70,64,59,96,77,55,30.03,29.85,20,5,20,0.01
2013-9-24,77,73,70,67,65,63,85,78,67,30.03,29.93,22,7,22,0.00
2013-9-25,74,72,71,69,68,67,89,87,85,29.82,29.80,14,6,14,0.00
2013-9-26,73,69,66,68,67,64,97,93,82,29.95,29.78,19,5,19,0.21
2013-9-27,66,64,62,64,61,59,95,90,87,29.98,29.93,12,5,12,0.00
2013-9-29,76,72,65,62,60,58,88,67,56,30.06,30.01,15,4,15,0.00
2013-9-30,76,70,63,63,60,55,95,73,53,30.07,29.99,13,2,13,0.00
2013-10-1,78,68,60,64,61,58,96,79,52,30.14,30.04,15,3,15,0.00
2013-10-2,82,70,61,67,64,60,98,82,51,30.15,30.07,12,2,14,0.01
2013-10-3,80,72,64,72,68,63,98,88,72,30.14,30.07,19,4,19,0.01
2013-10-4,84,74,68,73,70,67,99,87,58,30.14,30.06,13,2,13,0.01
2013-10-6,84,78,70,77,74,69,99,89,73,30.03,29.91,13,4,16,0.01
2013-10-7,79,77,75,76,75,73,96,93,90,29.91,29.84,17,4,17,0.02
2013-10-8,62,62,61,59,59,58,93,90,88,30.05,30.02,26,13,26,0.01
2013-10-9,75,66,58,66,60,56,92,84,70,30.10,30.02,22,8,22,0.00
2013-10-10,77,67,57,61,59,55,95,78,54,30.06,29.95,20,4,20,0.00
2013-10-11,64,64,62,64,62,60,98,97,94,29.99,29.94,9,0,9,0.00
2013-10-13,70,69,69,67,66,66,91,91,90,30.11,30.10,15,6,15,0.00
2013-10-14,72,69,68,68,66,66,94,91,86,30.12,30.06,20,8,20,0.00
2013-10-22,63,63,63,61,61,61,93,93,92,29.87,29.86,3,2,6,0.03
2013-10-24,65,58,52,52,48,40,95,70,47,30.17,30.11,10,1,10,0.08
2013-10-25,61,55,48,54,46,39,97,75,46,30.34,30.15,19,4,19,0.00
2013-10-26,65,53,43,49,43,37,94,72,53,30.33,30.15,14,4,14,0.00
2013-10-27,71,58,46,58,51,44,98,79,49,30.16,30.08,10,1,10,0.00
2013-10-28,74,64,56,62,58,55,97,84,60,30.26,30.13,6,1,7,0.01
2013-10-29,74,62,56,62,57,54,98,87,53,30.33,30.23,11,2,11,0.01
2013-11-2,72,66,60,63,57,50,93,74,49,29.96,29.79,16,4,16,1.21
2013-11-3,66,58,51,52,47,39,90,69,39,30.29,29.96,19,5,19,0.00
2013-11-4,56,54,52,48,46,45,81,77,73,30.38,30.27,20,7,20,0.00
2013-11-7,74,69,64,68,65,60,93,87,80,30.03,29.95,18,3,18,0.00
2013-11-8,64,54,44,60,41,32,95,64,36,30.30,30.03,26,7,26,0.00
2013-11-9,64,56,46,54,49,41,96,77,62,30.33,30.23,13,3,13,0.00
2013-11-10,70,60,52,58,54,49,95,81,56,30.26,30.14,10,1,10,0.00
2013-11-11,66,61,54,56,53,46,90,77,64,30.27,30.16,13,4,16,0.00
2013-11-12,71,59,44,57,50,34,96,74,44,30.31,30.01,34,4,34,0.00
2013-11-13,49,41,36,35,28,21,82,61,34,30.51,30.31,28,11,32,0.00
2013-11-14,61,49,34,50,42,28,93,76,60,30.49,30.31,18,4,18,0.00
2013-11-15,64,58,50,60,56,48,98,92,84,30.31,30.13,11,3,11,0.03
2013-11-16,72,63,59,65,61,58,99,91,75,30.22,30.14,13,2,13,0.04
2013-11-17,74,66,59,71,65,58,98,96,89,30.18,30.00,12,2,12,0.01
2013-11-18,80,70,64,73,66,46,99,89,47,30.00,29.83,16,2,16,0.00
2013-11-19,64,56,50,47,42,36,84,59,43,30.18,29.92,27,6,27,0.00
2013-11-20,58,53,48,51,46,40,81,77,72,30.30,30.16,22,10,22,0.00
2013-11-21,70,59,53,62,55,49,96,87,77,30.37,30.28,18,7,18,0.00
2013-11-22,72,65,59,67,63,58,99,94,82,30.33,30.16,10,2,10,0.00
2013-11-23,71,65,60,67,62,54,99,91,80,30.16,30.00,14,3,17,0.00
2013-11-24,60,46,37,54,29,18,82,54,31,30.51,30.10,27,9,27,0.00
2013-11-25,37,36,34,24,21,18,59,54,48,30.50,30.46,19,9,19,0.00
2013-11-29,46,45,44,39,38,37,78,77,75,30.50,30.48,10,5,10,0.00
2013-11-30,58,47,40,44,40,34,84,75,55,30.50,30.30,20,8,21,0.00
2013-12-1,59,53,48,54,49,43,95,86,79,30.30,30.01,13,3,13,0.00
2013-12-2,64,54,47,53,50,46,97,87,52,30.01,29.81,10,1,10,0.00
2013-12-3,64,55,46,58,53,45,98,92,79,29.99,29.89,9,1,9,0.02
2013-12-4,75,63,57,67,60,56,99,91,74,30.12,29.97,5,1,7,0.00
2013-12-5,72,65,58,68,64,58,100,95,84,30.18,30.09,11,1,12,0.01
2013-12-6,66,64,62,65,63,61,98,97,93,30.16,30.11,10,1,10,0.00
2013-12-10,59,57,55,52,50,50,84,79,75,30.25,30.16,12,4,12,0.03
2013-12-11,55,51,46,50,42,38,84,71,55,30.41,30.25,16,4,16,0.00
2013-12-12,55,46,37,43,37,29,94,72,39,30.40,30.27,18,3,18,0.00
2013-12-13,57,47,35,44,39,29,96,76,43,30.41,30.23,17,4,17,0.00
2013-12-14,68,60,48,66,58,44,99,93,82,30.23,29.82,27,4,27,0.88
2013-12-15,64,56,45,64,52,41,99,88,74,30.15,29.80,23,5,23,0.07
2013-12-16,59,47,38,47,41,36,97,81,44,30.24,30.15,10,2,10,0.00
2013-12-17,65,53,43,51,42,37,98,71,38,30.25,30.10,16,3,16,0.00
2013-12-18,58,49,38,42,37,30,95,66,36,30.33,30.12,13,4,16,0.00
2013-12-19,63,47,35,52,43,34,98,86,55,30.37,30.24,11,1,11,0.00
2013-12-20,73,59,48,60,54,47,99,87,64,30.27,30.17,6,1,8,0.00
2013-12-21,75,66,55,69,63,54,99,93,81,30.18,30.08,18,3,18,0.01
2013-12-22,72,68,63,69,67,62,99,95,91,30.14,30.08,17,4,17,0.00
2013-12-23,71,65,58,69,64,57,99,96,90,30.13,30.05,18,3,18,0.23
2013-12-24,59,52,45,57,45,35,98,79,42,30.36,30.08,18,6,18,0.06
2013-12-25,51,43,35,39,34,27,79,71,62,30.45,30.31,21,8,21,0.00
2013-12-26,51,46,41,46,41,36,91,84,76,30.32,30.24,15,7,18,0.01
2013-12-27,58,49,44,41,38,34,81,66,42,30.40,30.30,17,5,17,0.00
2013-12-28,62,52,42,56,46,36,98,82,69,30.39,30.03,18,5,18,0.05
2013-12-29,74,63,52,69,60,50,99,90,65,30.03,29.82,27,6,27,0.46
2013-12-30,60,52,46,50,47,45,95,82,61,30.18,29.99,9,4,13,0.00
2013-12-31,55,51,46,49,47,44,96,85,71,30.38,30.16,15,3,15,0.00
2014-1-1,54,49,46,50,47,43,98,92,85,30.37,30.14,10,2,10,0.39
2014-1-2,58,52,47,58,51,36,99,96,64,30.14,29.69,33,4,33,0.82